Powrót do katalogu

STARLINK-30365

AktywnyŁącznośćVLEO
NORAD 57734·PAYLOAD·🇺🇸 United States

Wystrzelony Sep 1, 2023 z Cape Canaveral Space Force Station

Loading…

Następne Przeloty (najbliższe 24 godziny)

TLE

ŚwieżeSource: CelesTrak SupGP

Epoka: Sep 14, 2026, 22:12 UTC

1 57734C 23131C   26257.92548611 -.00018190  00000+0 -65889-3 0  2570
2 57734  43.0017 183.8274 0001236 260.7272 198.4980 15.27585895    19

Śledź STARLINK-30365 w czasie rzeczywistym z AllMySat

Download on the App Store